Weather History for Butte, MT

Change the Weather History Date:

Saturday, July 5, 2014

  Actual Average Record
Temperature  
Mean Temperature 67 °F 61 °F  
Max Temperature 85 °F 78 °F 97 °F (1981)
Min Temperature 48 °F 45 °F 31 °F (1999)
Degree Days  
Heating Degree Days 0 5  
Month to date heating degree days 9 26  
Since 1 June heating degree days 362 313  
Since 1 July heating degree days 9 26  
Cooling Degree Days 2 1  
Month to date cooling degree days 14 5  
Year to date cooling degree days 14 12  
Since 1 June cooling degree days 14 12  
Growing Degree Days 16 (Base 50)    
Moisture  
Dew Point 43 °F    
Average Humidity 53    
Maximum Humidity 86    
Minimum Humidity 20    
Precipitation  
Precipitation 0.00 in 0.05 in 0.80 in (1895)
Month to date precipitation 0.03 0.24  
Year to date precipitation 7.74 7.41  
Sea Level Pressure  
Sea Level Pressure 30.01 in    
Wind  
Wind Speed 6 mph (NW)    
Max Wind Speed 20 mph    
Max Gust Speed 30 mph    
Visibility 10 miles    
Events      
T = Trace of Precipitation, MM = Missing Value Source: NWS Daily Summary

Daily Weather History Graph

Daily Weather History Graph

Search for Another Location

Airport:

Trip Planner

Search our weather history database for the weather conditions in past years. The results will help you decide how hot, cold, wet, or windy it might be!

Date:

Astronomy

Jul. 05, 2014 Rise Set
Actual Time 5:45 AM MDT 9:22 PM MDT
Civil Twilight 5:07 AM MDT 10:00 PM MDT
Nautical Twilight 4:17 AM MDT 10:51 PM MDT
Astronomical Twilight 3:09 AM MDT 11:58 PM MDT
Moon 2:11 PM MDT (7/5) 12:52 AM MDT (7/5)
Length of Visible Light 16h 52m
Length of Day
15h 37m
First Quarter, 53% of the Moon is Illuminated
Jul 5
First Quarter
Jul 12
Full
Jul 18
Last Quarter
Jul 26
New
Aug 3
First Quarter

Hourly Weather History & Observations

Time (MDT) Temp. Dew Point Humidity Pressure Visibility Wind Dir Wind Speed Gust Speed Precip Events Conditions
12:53 AM 55.9 °F 46.9 °F 72% 29.95 in 10.0 mi East 6.9 mph - N/A   Clear
1:53 AM 55.0 °F 46.9 °F 74% 29.96 in 10.0 mi West 3.5 mph - N/A   Clear
2:53 AM 51.1 °F 45.0 °F 80% 29.96 in 10.0 mi SSE 6.9 mph - N/A   Clear
3:53 AM 52.0 °F 45.0 °F 77% 29.95 in 10.0 mi Calm Calm - N/A   Clear
4:53 AM 48.9 °F 44.1 °F 83% 29.97 in 10.0 mi SSE 4.6 mph - N/A   Clear
5:53 AM 48.0 °F 44.1 °F 86% 30.00 in 10.0 mi ESE 3.5 mph - N/A   Clear
6:53 AM 50.0 °F 45.0 °F 83% 30.01 in 10.0 mi Calm Calm - N/A   Clear
7:53 AM 55.9 °F 48.0 °F 75% 30.01 in 10.0 mi ESE 3.5 mph - N/A   Clear
8:53 AM 61.0 °F 48.0 °F 62% 30.02 in 10.0 mi Calm Calm - N/A   Clear
9:53 AM 68.0 °F 48.9 °F 50% 30.02 in 10.0 mi Calm Calm - N/A   Clear
10:53 AM 73.9 °F 45.0 °F 35% 30.01 in 10.0 mi Calm Calm - N/A   Clear
11:53 AM 78.1 °F 44.1 °F 30% 30.00 in 10.0 mi Calm Calm - N/A   Clear
12:53 PM 79.0 °F 39.9 °F 25% 30.02 in 10.0 mi West 9.2 mph - N/A   Clear
1:53 PM 82.0 °F 39.0 °F 22% 30.01 in 10.0 mi WNW 18.4 mph 25.3 mph N/A   Clear
2:53 PM 82.9 °F 37.0 °F 19% 30.01 in 10.0 mi West 15.0 mph 26.5 mph N/A   Scattered Clouds
3:53 PM 84.9 °F 39.0 °F 20% 30.00 in 10.0 mi NW 16.1 mph 21.9 mph N/A   Partly Cloudy
4:53 PM 84.9 °F 39.0 °F 20% 30.01 in 10.0 mi NW 12.7 mph 20.7 mph N/A   Partly Cloudy
5:53 PM 82.9 °F 37.0 °F 19% 30.02 in 10.0 mi NNW 15.0 mph 21.9 mph N/A   Partly Cloudy
6:53 PM 82.9 °F 37.9 °F 20% 30.02 in 10.0 mi NNW 10.4 mph - N/A   Partly Cloudy
7:53 PM 80.1 °F 37.9 °F 22% 30.03 in 10.0 mi North 9.2 mph - N/A   Clear
8:53 PM 75.9 °F 39.0 °F 26% 30.04 in 10.0 mi North 8.1 mph - N/A   Clear
9:53 PM 72.0 °F 39.0 °F 30% 30.06 in 10.0 mi Calm Calm - N/A   Clear
10:53 PM 62.1 °F 42.1 °F 48% 30.08 in 10.0 mi ESE 5.8 mph - N/A   Clear
11:53 PM 59.0 °F 43.0 °F 55% 30.09 in 10.0 mi Calm Calm - N/A   Clear